Year,Month,Day,Hour,Minute,Value (Times are PST for windgust in km/hr)
2010,04,01,00,00,9.60
2010,04,01,00,01,6.40
2010,04,01,00,02,4.80
2010,04,01,00,03,9.60
2010,04,01,00,04,8.10
2010,04,01,00,05,8.10
2010,04,01,00,06,6.40
2010,04,01,00,07,4.80
2010,04,01,00,08,6.40
2010,04,01,00,09,4.80
2010,04,01,00,10,4.80
2010,04,01,00,11,6.40
2010,04,01,00,12,8.10
2010,04,01,00,13,12.90
2010,04,01,00,14,6.40
2010,04,01,00,15,8.10
2010,04,01,00,16,9.60
2010,04,01,00,17,8.10
2010,04,01,00,18,6.40
2010,04,01,00,19,6.40
2010,04,01,00,20,4.80
2010,04,01,00,21,4.80
2010,04,01,00,22,4.80
2010,04,01,00,23,8.10
2010,04,01,00,24,4.80
2010,04,01,00,25,8.10
2010,04,01,00,26,4.80
2010,04,01,00,27,9.60
2010,04,01,00,28,6.40
2010,04,01,00,29,6.40
2010,04,01,00,30,6.40
2010,04,01,00,31,1.60
2010,04,01,00,32,4.80
2010,04,01,00,33,4.80
2010,04,01,00,34,4.80
2010,04,01,00,35,6.40
2010,04,01,00,36,8.10
2010,04,01,00,37,9.60
2010,04,01,00,38,6.40
2010,04,01,00,39,9.60
2010,04,01,00,40,9.60
2010,04,01,00,41,4.80
2010,04,01,00,42,6.40
2010,04,01,00,43,8.10
2010,04,01,00,44,11.30
2010,04,01,00,45,9.60
2010,04,01,00,46,9.60
2010,04,01,00,47,9.60
2010,04,01,00,48,6.40
2010,04,01,00,49,6.40
2010,04,01,00,50,9.60
2010,04,01,00,51,8.10
2010,04,01,00,52,9.60
2010,04,01,00,53,8.10
2010,04,01,00,54,8.10
2010,04,01,00,55,6.40
2010,04,01,00,56,9.60
2010,04,01,00,57,4.80
2010,04,01,00,58,8.10
2010,04,01,00,59,6.40
2010,04,01,01,00,6.40
2010,04,01,01,01,6.40
2010,04,01,01,02,6.40
2010,04,01,01,03,6.40
2010,04,01,01,04,6.40
2010,04,01,01,05,6.40
2010,04,01,01,06,6.40
2010,04,01,01,07,6.40
2010,04,01,01,08,8.10
2010,04,01,01,09,6.40
2010,04,01,01,10,6.40
2010,04,01,01,11,6.40
2010,04,01,01,12,6.40
2010,04,01,01,13,6.40
2010,04,01,01,14,9.60
2010,04,01,01,15,9.60
2010,04,01,01,16,8.10
2010,04,01,01,17,6.40
2010,04,01,01,18,8.10
2010,04,01,01,19,9.60
2010,04,01,01,20,8.10
2010,04,01,01,21,8.10
2010,04,01,01,22,6.40
2010,04,01,01,23,8.10
2010,04,01,01,24,9.60
2010,04,01,01,25,8.10
2010,04,01,01,26,6.40
2010,04,01,01,27,9.60
2010,04,01,01,28,9.60
2010,04,01,01,29,8.10
2010,04,01,01,30,8.10
2010,04,01,01,31,4.80
2010,04,01,01,32,6.40
2010,04,01,01,33,6.40
2010,04,01,01,34,4.80
2010,04,01,01,35,6.40
2010,04,01,01,36,6.40
2010,04,01,01,37,4.80
2010,04,01,01,38,3.20
2010,04,01,01,39,4.80
2010,04,01,01,40,6.40
2010,04,01,01,41,8.10
2010,04,01,01,42,6.40
2010,04,01,01,43,9.60
2010,04,01,01,44,6.40
2010,04,01,01,45,6.40
2010,04,01,01,46,8.10
2010,04,01,01,47,6.40
2010,04,01,01,48,8.10
2010,04,01,01,49,8.10
2010,04,01,01,50,8.10
2010,04,01,01,51,6.40
2010,04,01,01,52,6.40
2010,04,01,01,53,4.80
2010,04,01,01,54,6.40
2010,04,01,01,55,4.80
2010,04,01,01,56,3.20
2010,04,01,01,57,4.80
2010,04,01,01,58,4.80
2010,04,01,01,59,3.20
2010,04,01,02,00,3.20
2010,04,01,02,01,4.80
2010,04,01,02,02,1.60
2010,04,01,02,03,1.60
2010,04,01,02,04,4.80
2010,04,01,02,05,6.40
2010,04,01,02,06,4.80
2010,04,01,02,07,3.20
2010,04,01,02,08,3.20
2010,04,01,02,09,8.10
2010,04,01,02,10,3.20
2010,04,01,02,11,3.20
2010,04,01,02,12,4.80
2010,04,01,02,13,4.80
2010,04,01,02,14,6.40
2010,04,01,02,18,3.20
2010,04,01,02,19,3.20
2010,04,01,02,20,3.20
2010,04,01,02,21,3.20
2010,04,01,02,22,4.80
2010,04,01,02,23,8.10
2010,04,01,02,24,8.10
2010,04,01,02,25,16.10
2010,04,01,02,26,12.90
2010,04,01,02,27,8.10
2010,04,01,02,28,8.10
2010,04,01,02,29,6.40
2010,04,01,02,30,8.10
2010,04,01,02,31,6.40
2010,04,01,02,32,6.40
2010,04,01,02,33,1.60
2010,04,01,02,34,3.20
2010,04,01,02,35,3.20
2010,04,01,02,36,1.60
2010,04,01,02,37,1.60
2010,04,01,02,38,1.60
2010,04,01,02,39,3.20
2010,04,01,02,40,4.80
2010,04,01,02,41,6.40
2010,04,01,02,42,6.40
2010,04,01,02,43,3.20
2010,04,01,02,44,6.40
2010,04,01,02,45,3.20
2010,04,01,02,46,3.20
2010,04,01,02,47,3.20
2010,04,01,02,48,8.10
2010,04,01,02,49,9.60
2010,04,01,02,50,9.60
2010,04,01,02,51,8.10
2010,04,01,02,52,6.40
2010,04,01,02,53,4.80
2010,04,01,02,54,8.10
2010,04,01,02,55,9.60
2010,04,01,02,56,6.40
2010,04,01,02,57,9.60
2010,04,01,02,58,8.10
2010,04,01,02,59,4.80
2010,04,01,03,00,3.20
2010,04,01,03,01,6.40
2010,04,01,03,02,8.10
2010,04,01,03,03,6.40
2010,04,01,03,04,8.10
2010,04,01,03,05,8.10
2010,04,01,03,06,8.10
2010,04,01,03,07,6.40
2010,04,01,03,08,4.80
2010,04,01,03,09,6.40
2010,04,01,03,10,6.40
2010,04,01,03,11,4.80
2010,04,01,03,12,9.60
2010,04,01,03,13,8.10
2010,04,01,03,14,11.30
2010,04,01,03,15,8.10
2010,04,01,03,16,11.30
2010,04,01,03,17,14.50
2010,04,01,03,18,8.10
2010,04,01,03,19,8.10
2010,04,01,03,20,6.40
2010,04,01,03,21,8.10
2010,04,01,03,22,6.40
2010,04,01,03,23,8.10
2010,04,01,03,24,6.40
2010,04,01,03,25,6.40
2010,04,01,03,26,8.10
2010,04,01,03,27,6.40
2010,04,01,03,28,6.40
2010,04,01,03,29,4.80
2010,04,01,03,30,6.40
2010,04,01,03,31,4.80
2010,04,01,03,32,6.40
2010,04,01,03,33,6.40
2010,04,01,03,34,3.20
2010,04,01,03,35,8.10
2010,04,01,03,36,6.40
2010,04,01,03,37,4.80
2010,04,01,03,38,8.10
2010,04,01,03,39,6.40
2010,04,01,03,40,6.40
2010,04,01,03,41,6.40
2010,04,01,03,42,8.10
2010,04,01,03,43,8.10
2010,04,01,03,44,6.40
2010,04,01,03,45,9.60
2010,04,01,03,46,6.40
2010,04,01,03,47,6.40
2010,04,01,03,48,8.10
2010,04,01,03,49,6.40
2010,04,01,03,50,6.40
2010,04,01,03,51,8.10
2010,04,01,03,52,6.40
2010,04,01,03,53,8.10
2010,04,01,03,54,8.10
2010,04,01,03,55,8.10
2010,04,01,03,56,6.40
2010,04,01,03,57,8.10
2010,04,01,03,58,8.10
2010,04,01,03,59,4.80
2010,04,01,04,00,4.80
2010,04,01,04,01,4.80
2010,04,01,04,02,4.80
2010,04,01,04,03,6.40
2010,04,01,04,04,8.10
2010,04,01,04,05,4.80
2010,04,01,04,06,6.40
2010,04,01,04,07,6.40
2010,04,01,04,08,9.60
2010,04,01,04,09,8.10
2010,04,01,04,10,8.10
2010,04,01,04,11,8.10
2010,04,01,04,12,6.40
2010,04,01,04,13,9.60
2010,04,01,04,14,9.60
2010,04,01,04,15,4.80
2010,04,01,04,16,6.40
2010,04,01,04,17,4.80
2010,04,01,04,18,4.80
2010,04,01,04,19,8.10
2010,04,01,04,20,8.10
2010,04,01,04,21,6.40
2010,04,01,04,22,11.30
2010,04,01,04,23,6.40
2010,04,01,04,24,3.20
2010,04,01,04,25,3.20
2010,04,01,04,26,4.80
2010,04,01,04,27,4.80
2010,04,01,04,28,6.40
2010,04,01,04,29,6.40
2010,04,01,04,30,8.10
2010,04,01,04,31,6.40
2010,04,01,04,32,8.10
2010,04,01,04,33,9.60
2010,04,01,04,34,6.40
2010,04,01,04,35,6.40
2010,04,01,04,36,4.80
2010,04,01,04,37,8.10
2010,04,01,04,38,8.10
2010,04,01,04,39,8.10
2010,04,01,04,40,6.40
2010,04,01,04,41,8.10
2010,04,01,04,42,8.10
2010,04,01,04,43,6.40
2010,04,01,04,44,4.80
2010,04,01,04,45,6.40
2010,04,01,04,46,6.40
2010,04,01,04,47,4.80
2010,04,01,04,48,8.10
2010,04,01,04,49,6.40
2010,04,01,04,50,4.80
2010,04,01,04,51,3.20
2010,04,01,04,52,6.40
2010,04,01,04,53,6.40
2010,04,01,04,54,4.80
2010,04,01,04,55,4.80
2010,04,01,04,56,4.80
2010,04,01,04,57,1.60
2010,04,01,04,58,1.60
2010,04,01,04,59,1.60
2010,04,01,05,00,1.60
2010,04,01,05,01,3.20
2010,04,01,05,02,3.20
2010,04,01,05,03,4.80
2010,04,01,05,04,3.20
2010,04,01,05,05,4.80
2010,04,01,05,06,6.40
2010,04,01,05,07,9.60
2010,04,01,05,08,8.10
2010,04,01,05,09,6.40
2010,04,01,05,10,4.80
2010,04,01,05,11,9.60
2010,04,01,05,12,6.40
2010,04,01,05,13,6.40
2010,04,01,05,14,4.80
2010,04,01,05,15,4.80
2010,04,01,05,16,3.20
2010,04,01,05,17,6.40
2010,04,01,05,18,4.80
2010,04,01,05,19,4.80
2010,04,01,05,20,6.40
2010,04,01,05,21,8.10
2010,04,01,05,22,4.80
2010,04,01,05,23,4.80
2010,04,01,05,24,4.80
2010,04,01,05,25,6.40
2010,04,01,05,26,6.40
2010,04,01,05,27,6.40
2010,04,01,05,28,6.40
2010,04,01,05,29,6.40
2010,04,01,05,30,4.80
2010,04,01,05,31,6.40
2010,04,01,05,32,3.20
2010,04,01,05,33,3.20
2010,04,01,05,34,1.60
2010,04,01,05,35,1.60
2010,04,01,05,36,1.60
2010,04,01,05,38,1.60
2010,04,01,05,39,1.60
2010,04,01,05,41,3.20
2010,04,01,05,42,1.60
2010,04,01,05,43,1.60
2010,04,01,05,44,4.80
2010,04,01,05,45,4.80
2010,04,01,05,46,6.40
2010,04,01,05,47,4.80
2010,04,01,05,48,3.20
2010,04,01,05,49,4.80
2010,04,01,05,50,6.40
2010,04,01,05,51,8.10
2010,04,01,05,52,6.40
2010,04,01,05,53,4.80
2010,04,01,05,54,8.10
2010,04,01,05,55,4.80
2010,04,01,05,56,6.40
2010,04,01,05,57,8.10
2010,04,01,05,58,6.40
2010,04,01,05,59,9.60
2010,04,01,06,00,9.60
2010,04,01,06,01,6.40
2010,04,01,06,02,6.40
2010,04,01,06,03,6.40
2010,04,01,06,04,4.80
2010,04,01,06,05,4.80
2010,04,01,06,06,4.80
2010,04,01,06,07,3.20
2010,04,01,06,08,3.20
2010,04,01,06,09,4.80
2010,04,01,06,10,4.80
2010,04,01,06,11,6.40
2010,04,01,06,12,4.80
2010,04,01,06,13,8.10
2010,04,01,06,14,4.80
2010,04,01,06,15,4.80
2010,04,01,06,16,3.20
2010,04,01,06,17,4.80
2010,04,01,06,18,6.40
2010,04,01,06,19,4.80
2010,04,01,06,20,3.20
2010,04,01,06,21,6.40
2010,04,01,06,22,6.40
2010,04,01,06,23,6.40
2010,04,01,06,24,6.40
2010,04,01,06,25,6.40
2010,04,01,06,26,8.10
2010,04,01,06,27,6.40
2010,04,01,06,28,6.40
2010,04,01,06,29,8.10
2010,04,01,06,30,6.40
2010,04,01,06,31,4.80
2010,04,01,06,32,4.80
2010,04,01,06,33,6.40
2010,04,01,06,34,6.40
2010,04,01,06,35,8.10
2010,04,01,06,36,6.40
2010,04,01,06,37,6.40
2010,04,01,06,38,4.80
2010,04,01,06,39,4.80
2010,04,01,06,40,4.80
2010,04,01,06,41,6.40
2010,04,01,06,42,9.60
2010,04,01,06,43,6.40
2010,04,01,06,44,6.40
2010,04,01,06,45,6.40
2010,04,01,06,46,6.40
2010,04,01,06,47,8.10
2010,04,01,06,48,8.10
2010,04,01,06,49,6.40
2010,04,01,06,50,8.10
2010,04,01,06,51,8.10
2010,04,01,06,52,16.10
2010,04,01,06,53,8.10
2010,04,01,06,54,8.10
2010,04,01,06,55,6.40
2010,04,01,06,56,8.10
2010,04,01,06,57,11.30
2010,04,01,06,58,6.40
2010,04,01,06,59,6.40
2010,04,01,07,00,6.40
2010,04,01,07,01,6.40
2010,04,01,07,02,4.80
2010,04,01,07,03,4.80
2010,04,01,07,04,6.40
2010,04,01,07,05,4.80
2010,04,01,07,06,4.80
2010,04,01,07,07,6.40
2010,04,01,07,08,4.80
2010,04,01,07,09,4.80
2010,04,01,07,10,6.40
2010,04,01,07,11,4.80
2010,04,01,07,12,6.40
2010,04,01,07,13,4.80
2010,04,01,07,14,8.10
2010,04,01,07,15,8.10
2010,04,01,07,16,4.80
2010,04,01,07,17,8.10
2010,04,01,07,18,6.40
2010,04,01,07,19,8.10
2010,04,01,07,20,8.10
2010,04,01,07,21,6.40
2010,04,01,07,22,6.40
2010,04,01,07,23,6.40
2010,04,01,07,24,4.80
2010,04,01,07,25,6.40
2010,04,01,07,26,4.80
2010,04,01,07,27,4.80
2010,04,01,07,28,4.80
2010,04,01,07,29,1.60
2010,04,01,07,30,4.80
2010,04,01,07,31,3.20
2010,04,01,07,32,4.80
2010,04,01,07,33,3.20
2010,04,01,07,34,3.20
2010,04,01,07,35,3.20
2010,04,01,07,36,3.20
2010,04,01,07,37,9.60
2010,04,01,07,38,6.40
2010,04,01,07,39,3.20
2010,04,01,07,40,1.60
2010,04,01,07,41,8.10
2010,04,01,07,42,9.60
2010,04,01,07,43,8.10
2010,04,01,07,44,6.40
2010,04,01,07,45,8.10
2010,04,01,07,46,4.80
2010,04,01,07,47,6.40
2010,04,01,07,48,4.80
2010,04,01,07,49,8.10
2010,04,01,07,50,6.40
2010,04,01,07,51,4.80
2010,04,01,07,52,6.40
2010,04,01,07,53,8.10
2010,04,01,07,54,11.30
2010,04,01,07,55,11.30
2010,04,01,07,56,8.10
2010,04,01,07,57,8.10
2010,04,01,07,58,11.30
2010,04,01,07,59,9.60
2010,04,01,08,00,8.10
2010,04,01,08,01,8.10
2010,04,01,08,02,6.40
2010,04,01,08,03,11.30
2010,04,01,08,04,4.80
2010,04,01,08,05,6.40
2010,04,01,08,06,8.10
2010,04,01,08,07,6.40
2010,04,01,08,08,6.40
2010,04,01,08,09,6.40
2010,04,01,08,10,6.40
2010,04,01,08,11,8.10
2010,04,01,08,12,6.40
2010,04,01,08,13,4.80
2010,04,01,08,14,4.80
2010,04,01,08,15,6.40
2010,04,01,08,16,3.20
2010,04,01,08,17,6.40
2010,04,01,08,18,4.80
2010,04,01,08,19,4.80
2010,04,01,08,20,4.80
2010,04,01,08,21,4.80
2010,04,01,08,22,4.80
2010,04,01,08,23,3.20
2010,04,01,08,24,3.20
2010,04,01,08,25,1.60
2010,04,01,08,27,1.60
2010,04,01,08,29,3.20
2010,04,01,08,30,1.60
2010,04,01,08,31,3.20
2010,04,01,08,32,1.60
2010,04,01,08,33,1.60
2010,04,01,08,37,6.40
2010,04,01,08,38,6.40
2010,04,01,08,39,1.60
2010,04,01,08,41,1.60
2010,04,01,08,42,3.20
2010,04,01,08,43,4.80
2010,04,01,08,44,1.60
2010,04,01,08,46,1.60
2010,04,01,08,48,1.60
2010,04,01,08,49,1.60
2010,04,01,08,50,1.60
2010,04,01,08,51,3.20
2010,04,01,08,53,1.60
2010,04,01,08,54,1.60
2010,04,01,08,55,4.80
2010,04,01,08,56,1.60
2010,04,01,08,57,4.80
2010,04,01,08,58,1.60
2010,04,01,08,59,1.60
2010,04,01,09,00,4.80
2010,04,01,09,01,1.60
2010,04,01,09,02,6.40
2010,04,01,09,03,4.80
2010,04,01,09,04,1.60
2010,04,01,09,05,4.80
2010,04,01,09,06,8.10
2010,04,01,09,07,6.40
2010,04,01,09,08,11.30
2010,04,01,09,09,8.10
2010,04,01,09,10,4.80
2010,04,01,09,11,1.60
2010,04,01,09,12,3.20
2010,04,01,09,13,3.20
2010,04,01,09,14,4.80
2010,04,01,09,15,6.40
2010,04,01,09,16,6.40
2010,04,01,09,17,6.40
2010,04,01,09,18,3.20
2010,04,01,09,19,1.60
2010,04,01,09,20,8.10
2010,04,01,09,21,1.60
2010,04,01,09,22,1.60
2010,04,01,09,23,6.40
2010,04,01,09,24,3.20
2010,04,01,09,25,1.60
2010,04,01,09,26,8.10
2010,04,01,09,27,4.80
2010,04,01,09,28,4.80
2010,04,01,09,29,6.40
2010,04,01,09,30,8.10
2010,04,01,09,31,9.60
2010,04,01,09,32,9.60
2010,04,01,09,33,9.60
2010,04,01,09,34,4.80
2010,04,01,09,35,6.40
2010,04,01,09,36,6.40
2010,04,01,09,37,4.80
2010,04,01,09,38,14.50
2010,04,01,09,39,8.10
2010,04,01,09,40,8.10
2010,04,01,09,41,1.60
2010,04,01,09,42,3.20
2010,04,01,09,43,8.10
2010,04,01,09,44,4.80
2010,04,01,09,45,8.10
2010,04,01,09,46,4.80
2010,04,01,09,47,6.40
2010,04,01,09,48,8.10
2010,04,01,09,49,6.40
2010,04,01,09,50,8.10
2010,04,01,09,51,9.60
2010,04,01,09,52,6.40
2010,04,01,09,53,6.40
2010,04,01,09,54,11.30
2010,04,01,09,55,4.80
2010,04,01,09,56,8.10
2010,04,01,09,57,4.80
2010,04,01,09,58,4.80
2010,04,01,09,59,6.40
2010,04,01,10,00,6.40
2010,04,01,10,01,4.80
2010,04,01,10,02,6.40
2010,04,01,10,03,6.40
2010,04,01,10,04,6.40
2010,04,01,10,05,11.30
2010,04,01,10,06,6.40
2010,04,01,10,07,11.30
2010,04,01,10,08,9.60
2010,04,01,10,09,19.30
2010,04,01,10,10,17.70
2010,04,01,10,11,14.50
2010,04,01,10,12,8.10
2010,04,01,10,13,9.60
2010,04,01,10,14,11.30
2010,04,01,10,15,14.50
2010,04,01,10,16,16.10
2010,04,01,10,17,14.50
2010,04,01,10,18,16.10
2010,04,01,10,19,9.60
2010,04,01,10,20,14.50
2010,04,01,10,21,11.30
2010,04,01,10,22,17.70
2010,04,01,10,23,17.70
2010,04,01,10,24,9.60
2010,04,01,10,25,6.40
2010,04,01,10,26,9.60
2010,04,01,10,27,11.30
2010,04,01,10,28,11.30
2010,04,01,10,29,4.80
2010,04,01,10,30,6.40
2010,04,01,10,31,6.40
2010,04,01,10,32,14.50
2010,04,01,10,33,6.40
2010,04,01,10,34,8.10
2010,04,01,10,35,9.60
2010,04,01,10,36,8.10
2010,04,01,10,37,6.40
2010,04,01,10,38,14.50
2010,04,01,10,39,6.40
2010,04,01,10,40,9.60
2010,04,01,10,41,8.10
2010,04,01,10,42,8.10
2010,04,01,10,43,12.90
2010,04,01,10,44,17.70
2010,04,01,10,45,16.10
2010,04,01,10,46,9.60
2010,04,01,10,47,16.10
2010,04,01,10,48,16.10
2010,04,01,10,49,17.70
2010,04,01,10,50,16.10
2010,04,01,10,51,11.30
2010,04,01,10,52,11.30
2010,04,01,10,53,14.50
2010,04,01,10,54,14.50
2010,04,01,10,55,14.50
2010,04,01,10,56,17.70
2010,04,01,10,57,17.70
2010,04,01,10,58,11.30
2010,04,01,10,59,9.60
2010,04,01,11,00,11.30
2010,04,01,11,01,11.30
2010,04,01,11,02,11.30
2010,04,01,11,03,9.60
2010,04,01,11,04,14.50
2010,04,01,11,05,16.10
2010,04,01,11,06,9.60
2010,04,01,11,07,11.30
2010,04,01,11,08,9.60
2010,04,01,11,09,6.40
2010,04,01,11,10,8.10
2010,04,01,11,11,11.30
2010,04,01,11,12,11.30
2010,04,01,11,13,14.50
2010,04,01,11,14,6.40
2010,04,01,11,15,6.40
2010,04,01,11,16,6.40
2010,04,01,11,17,11.30
2010,04,01,11,18,9.60
2010,04,01,11,19,19.30
2010,04,01,11,20,8.10
2010,04,01,11,21,11.30
2010,04,01,11,22,4.80
2010,04,01,11,23,4.80
2010,04,01,11,24,3.20
2010,04,01,11,25,9.60
2010,04,01,11,26,17.70
2010,04,01,11,27,11.30
2010,04,01,11,28,8.10
2010,04,01,11,29,9.60
2010,04,01,11,30,14.50
2010,04,01,11,31,6.40
2010,04,01,11,32,17.70
2010,04,01,11,33,14.50
2010,04,01,11,34,8.10
2010,04,01,11,35,11.30
2010,04,01,11,36,9.60
2010,04,01,11,37,16.10
2010,04,01,11,38,11.30
2010,04,01,11,39,16.10
2010,04,01,11,40,12.90
2010,04,01,11,41,14.50
2010,04,01,11,42,22.50
2010,04,01,11,43,20.90
2010,04,01,11,44,22.50
2010,04,01,11,45,17.70
2010,04,01,11,46,12.90
2010,04,01,11,47,19.30
2010,04,01,11,48,17.70
2010,04,01,11,49,9.60
2010,04,01,11,50,14.50
2010,04,01,11,51,6.40
2010,04,01,11,52,11.30
2010,04,01,11,53,9.60
2010,04,01,11,54,11.30
2010,04,01,11,55,9.60
2010,04,01,11,56,9.60
2010,04,01,11,57,6.40
2010,04,01,11,58,8.10
2010,04,01,11,59,8.10
2010,04,01,12,00,9.60
2010,04,01,12,01,14.50
2010,04,01,12,02,8.10
2010,04,01,12,03,16.10
2010,04,01,12,04,19.30
2010,04,01,12,05,19.30
2010,04,01,12,06,16.10
2010,04,01,12,07,14.50
2010,04,01,12,08,17.70
2010,04,01,12,09,8.10
2010,04,01,12,10,19.30
2010,04,01,12,11,16.10
2010,04,01,12,12,20.90
2010,04,01,12,13,11.30
2010,04,01,12,14,6.40
2010,04,01,12,15,16.10
2010,04,01,12,16,12.90
2010,04,01,12,17,19.30
2010,04,01,12,18,16.10
2010,04,01,12,19,20.90
2010,04,01,12,20,14.50
2010,04,01,12,21,9.60
2010,04,01,12,22,16.10
2010,04,01,12,23,14.50
2010,04,01,12,24,12.90
2010,04,01,12,25,12.90
2010,04,01,12,26,14.50
2010,04,01,12,27,9.60
2010,04,01,12,28,8.10
2010,04,01,12,29,11.30
2010,04,01,12,30,9.60
2010,04,01,12,31,9.60
2010,04,01,12,32,6.40
2010,04,01,12,33,8.10
2010,04,01,12,34,14.50
2010,04,01,12,35,11.30
2010,04,01,12,36,11.30
2010,04,01,12,37,14.50
2010,04,01,12,38,8.10
2010,04,01,12,39,6.40
2010,04,01,12,40,4.80
2010,04,01,12,41,8.10
2010,04,01,12,42,9.60
2010,04,01,12,43,4.80
2010,04,01,12,44,6.40
2010,04,01,12,45,3.20
2010,04,01,12,46,3.20
2010,04,01,12,47,4.80
2010,04,01,12,48,4.80
2010,04,01,12,49,8.10
2010,04,01,12,50,16.10
2010,04,01,12,51,20.90
2010,04,01,12,52,17.70
2010,04,01,12,53,20.90
2010,04,01,12,54,22.50
2010,04,01,12,55,19.30
2010,04,01,12,56,20.90
2010,04,01,12,57,20.90
2010,04,01,12,58,14.50
2010,04,01,12,59,22.50
2010,04,01,13,00,20.90
2010,04,01,13,01,19.30
2010,04,01,13,02,20.90
2010,04,01,13,03,20.90
2010,04,01,13,04,20.90
2010,04,01,13,05,20.90
2010,04,01,13,06,19.30
2010,04,01,13,07,17.70
2010,04,01,13,08,17.70
2010,04,01,13,09,14.50
2010,04,01,13,10,16.10
2010,04,01,13,11,20.90
2010,04,01,13,12,17.70
2010,04,01,13,13,11.30
2010,04,01,13,14,16.10
2010,04,01,13,15,16.10
2010,04,01,13,16,11.30
2010,04,01,13,17,11.30
2010,04,01,13,18,14.50
2010,04,01,13,19,20.90
2010,04,01,13,20,25.70
2010,04,01,13,21,19.30
2010,04,01,13,22,25.70
2010,04,01,13,23,19.30
2010,04,01,13,24,20.90
2010,04,01,13,25,22.50
2010,04,01,13,26,24.20
2010,04,01,13,27,41.80
2010,04,01,13,28,32.20
2010,04,01,13,29,32.20
2010,04,01,13,30,27.40
2010,04,01,13,31,25.70
2010,04,01,13,32,25.70
2010,04,01,13,33,27.40
2010,04,01,13,34,22.50
2010,04,01,13,35,22.50
2010,04,01,13,36,17.70
2010,04,01,13,37,17.70
2010,04,01,13,38,16.10
2010,04,01,13,39,19.30
2010,04,01,13,40,20.90
2010,04,01,13,41,19.30
2010,04,01,13,42,8.10
2010,04,01,13,43,11.30
2010,04,01,13,44,8.10
2010,04,01,13,45,19.30
2010,04,01,13,46,16.10
2010,04,01,13,47,14.50
2010,04,01,13,48,16.10
2010,04,01,13,49,16.10
2010,04,01,13,50,16.10
2010,04,01,13,51,14.50
2010,04,01,13,52,16.10
2010,04,01,13,53,14.50
2010,04,01,13,54,11.30
2010,04,01,13,55,6.40
2010,04,01,13,56,8.10
2010,04,01,13,57,6.40
2010,04,01,13,58,11.30
2010,04,01,13,59,4.80
2010,04,01,14,00,8.10
2010,04,01,14,01,11.30
2010,04,01,14,02,9.60
2010,04,01,14,03,3.20
2010,04,01,14,04,6.40
2010,04,01,14,05,6.40
2010,04,01,14,06,3.20
2010,04,01,14,07,3.20
2010,04,01,14,10,4.80
2010,04,01,14,11,3.20
2010,04,01,14,13,3.20
2010,04,01,14,14,3.20
2010,04,01,14,16,4.80
2010,04,01,14,17,3.20
2010,04,01,14,18,6.40
2010,04,01,14,19,3.20
2010,04,01,14,20,6.40
2010,04,01,14,21,11.30
2010,04,01,14,22,8.10
2010,04,01,14,23,6.40
2010,04,01,14,24,11.30
2010,04,01,14,25,6.40
2010,04,01,14,26,4.80
2010,04,01,14,27,6.40
2010,04,01,14,28,6.40
2010,04,01,14,29,6.40
2010,04,01,14,30,8.10
2010,04,01,14,31,9.60
2010,04,01,14,32,9.60
2010,04,01,14,33,9.60
2010,04,01,14,34,14.50
2010,04,01,14,35,9.60
2010,04,01,14,36,8.10
2010,04,01,14,37,6.40
2010,04,01,14,38,19.30
2010,04,01,14,39,9.60
2010,04,01,14,40,11.30
2010,04,01,14,41,6.40
2010,04,01,14,42,4.80
2010,04,01,14,43,8.10
2010,04,01,14,44,6.40
2010,04,01,14,45,1.60
2010,04,01,14,46,6.40
2010,04,01,14,47,9.60
2010,04,01,14,48,9.60
2010,04,01,14,49,14.50
2010,04,01,14,50,8.10
2010,04,01,14,51,19.30
2010,04,01,14,52,17.70
2010,04,01,14,53,16.10
2010,04,01,14,54,14.50
2010,04,01,14,55,17.70
2010,04,01,14,56,11.30
2010,04,01,14,57,8.10
2010,04,01,14,58,3.20
2010,04,01,14,59,9.60
2010,04,01,15,00,14.50
2010,04,01,15,01,8.10
2010,04,01,15,02,16.10
2010,04,01,15,03,8.10
2010,04,01,15,04,14.50
2010,04,01,15,05,14.50
2010,04,01,15,06,14.50
2010,04,01,15,07,16.10
2010,04,01,15,08,16.10
2010,04,01,15,09,17.70
2010,04,01,15,10,17.70
2010,04,01,15,11,12.90
2010,04,01,15,12,12.90
2010,04,01,15,13,11.30
2010,04,01,15,14,6.40
2010,04,01,15,15,11.30
2010,04,01,15,16,9.60
2010,04,01,15,17,11.30
2010,04,01,15,18,14.50
2010,04,01,15,19,17.70
2010,04,01,15,20,14.50
2010,04,01,15,21,11.30
2010,04,01,15,22,8.10
2010,04,01,15,23,4.80
2010,04,01,15,24,14.50
2010,04,01,15,25,17.70
2010,04,01,15,26,11.30
2010,04,01,15,27,8.10
2010,04,01,15,28,14.50
2010,04,01,15,29,12.90
2010,04,01,15,30,19.30
2010,04,01,15,31,20.90
2010,04,01,15,32,17.70
2010,04,01,15,33,9.60
2010,04,01,15,34,9.60
2010,04,01,15,35,8.10
2010,04,01,15,36,9.60
2010,04,01,15,37,8.10
2010,04,01,15,38,8.10
2010,04,01,15,39,17.70
2010,04,01,15,40,22.50
2010,04,01,15,41,20.90
2010,04,01,15,42,14.50
2010,04,01,15,43,17.70
2010,04,01,15,44,20.90
2010,04,01,15,45,14.50
2010,04,01,15,46,20.90
2010,04,01,15,47,16.10
2010,04,01,15,48,19.30
2010,04,01,15,49,17.70
2010,04,01,15,50,19.30
2010,04,01,15,51,29.00
2010,04,01,15,52,30.60
2010,04,01,15,53,16.10
2010,04,01,15,54,14.50
2010,04,01,15,55,22.50
2010,04,01,15,56,24.20
2010,04,01,15,57,22.50
2010,04,01,15,58,17.70
2010,04,01,15,59,16.10
2010,04,01,16,00,17.70
2010,04,01,16,01,17.70
2010,04,01,16,02,20.90
2010,04,01,16,03,19.30
2010,04,01,16,04,19.30
2010,04,01,16,05,19.30
2010,04,01,16,06,20.90
2010,04,01,16,07,25.70
2010,04,01,16,08,22.50
2010,04,01,16,09,19.30
2010,04,01,16,10,20.90
2010,04,01,16,11,17.70
2010,04,01,16,12,11.30
2010,04,01,16,13,16.10
2010,04,01,16,14,16.10
2010,04,01,16,15,20.90
2010,04,01,16,16,14.50
2010,04,01,16,17,14.50
2010,04,01,16,18,11.30
2010,04,01,16,19,6.40
2010,04,01,16,20,8.10
2010,04,01,16,21,6.40
2010,04,01,16,22,6.40
2010,04,01,16,23,4.80
2010,04,01,16,24,3.20
2010,04,01,16,25,1.60
2010,04,01,16,26,1.60
2010,04,01,16,27,1.60
2010,04,01,16,28,3.20
2010,04,01,16,29,3.20
2010,04,01,16,30,4.80
2010,04,01,16,31,9.60
2010,04,01,16,32,3.20
2010,04,01,16,33,3.20
2010,04,01,16,34,1.60
2010,04,01,16,35,1.60
2010,04,01,16,36,3.20
2010,04,01,16,37,3.20
2010,04,01,16,38,6.40
2010,04,01,16,39,3.20
2010,04,01,16,40,1.60
2010,04,01,16,41,4.80
2010,04,01,16,42,3.20
2010,04,01,16,43,4.80
2010,04,01,16,44,6.40
2010,04,01,16,45,8.10
2010,04,01,16,46,3.20
2010,04,01,16,47,3.20
2010,04,01,16,48,4.80
2010,04,01,16,49,8.10
2010,04,01,16,50,9.60
2010,04,01,16,51,3.20
2010,04,01,16,52,6.40
2010,04,01,16,53,14.50
2010,04,01,16,54,11.30
2010,04,01,16,55,16.10
2010,04,01,16,56,9.60
2010,04,01,16,57,11.30
2010,04,01,16,58,11.30
2010,04,01,16,59,6.40
2010,04,01,17,00,11.30
2010,04,01,17,01,14.50
2010,04,01,17,02,9.60
2010,04,01,17,03,8.10
2010,04,01,17,04,14.50
2010,04,01,17,05,8.10
2010,04,01,17,06,11.30
2010,04,01,17,07,8.10
2010,04,01,17,08,8.10
2010,04,01,17,09,4.80
2010,04,01,17,10,1.60
2010,04,01,17,11,1.60
2010,04,01,17,12,1.60
2010,04,01,17,14,3.20
2010,04,01,17,15,1.60
2010,04,01,17,16,1.60
2010,04,01,17,17,4.80
2010,04,01,17,18,6.40
2010,04,01,17,19,3.20
2010,04,01,17,20,3.20
2010,04,01,17,21,3.20
2010,04,01,17,22,6.40
2010,04,01,17,23,6.40
2010,04,01,17,24,6.40
2010,04,01,17,25,1.60
2010,04,01,17,26,4.80
2010,04,01,17,27,4.80
2010,04,01,17,28,3.20
2010,04,01,17,29,6.40
2010,04,01,17,30,4.80
2010,04,01,17,31,4.80
2010,04,01,17,32,6.40
2010,04,01,17,33,4.80
2010,04,01,17,34,4.80
2010,04,01,17,35,6.40
2010,04,01,17,36,6.40
2010,04,01,17,37,6.40
2010,04,01,17,38,8.10
2010,04,01,17,39,4.80
2010,04,01,17,40,3.20
2010,04,01,17,41,3.20
2010,04,01,17,42,1.60
2010,04,01,17,43,1.60
2010,04,01,17,45,1.60
2010,04,01,17,46,3.20
2010,04,01,17,47,3.20
2010,04,01,17,48,3.20
2010,04,01,17,49,3.20
2010,04,01,17,50,4.80
2010,04,01,17,51,4.80
2010,04,01,17,52,1.60
2010,04,01,17,56,1.60
2010,04,01,17,57,1.60
2010,04,01,18,01,1.60
2010,04,01,18,02,1.60
2010,04,01,18,03,3.20
2010,04,01,18,04,1.60
2010,04,01,18,05,3.20
2010,04,01,18,06,1.60
2010,04,01,18,07,1.60
2010,04,01,18,09,1.60
2010,04,01,18,10,1.60
2010,04,01,18,11,1.60
2010,04,01,18,13,1.60
2010,04,01,18,14,1.60
2010,04,01,18,15,1.60
2010,04,01,18,17,1.60
2010,04,01,18,18,1.60
2010,04,01,18,21,1.60
2010,04,01,18,22,1.60
2010,04,01,18,25,1.60
2010,04,01,18,26,1.60
2010,04,01,18,27,1.60